Flag Weather past 2 weeks in Bryan – College Station, Texas, U.S.A.

Now
57 °F

Passing clouds.


Feels Like: 57 °F
Forecast: 55 / 79 °F
Wind: 5 mph from Northeast

Location: Easterwood Field

Current Time: Oct 30, 2014 at 8:18:31 AM

Latest Report: Oct 30, 2014 at 7:53 AM


Visibility: 10 mi

Pressure: 30.13 "Hg

Humidity: 83%

Dew point: 52 °F

Location of Bryan – College StationLocation

Historic Weather in Bryan – College Station — Graph

°F

Bryan – College Station temperature yesterday

Maximum temperature yesterday: 77 °F (at 4:53 PM)
Minimum temperature yesterday: 63 °F (at 11:53 PM)
Average temperature yesterday: 70 °F

Past Weeks' High & Low Weather Summary

 TemperatureHumidityPressure
High85 °F (Oct 15, 3:53 PM)97% (Oct 18, 5:53 AM)30.18 "Hg (Oct 18, 5:53 AM)
Low52 °F (Oct 15, 6:53 AM)26% (Oct 15, 4:53 PM)29.83 "Hg (Oct 27, 4:53 PM)
Average71 °F68%30.03 "Hg
* Reported Oct 15 6:53 AM — Oct 30 6:53 AM, Bryan – College Station, Weather by CustomWeather, © 2014

Note: Actual official high and low records may vary slightly from our data, if they occured in-between our weather recording intervals... More about our weather records

Advertising

Bryan – College Station weather history for previous 24 hours

 ConditionsComfort  
Time TempWeatherWind HumidityBarometerVisibility
6:53 AM
Oct 30
56 °FClear.5 mph87%30.11 "Hg10 mi
5:53 AM57 °FClear.3 mph83%30.10 "Hg10 mi
4:53 AM58 °FClear.5 mph84%30.09 "Hg10 mi
3:53 AM59 °FClear.7 mph84%30.10 "Hg10 mi
2:53 AM59 °FClear.No wind84%30.10 "Hg10 mi
1:53 AM60 °FClear.5 mph80%30.11 "Hg10 mi
12:53 AM62 °FClear.No wind75%30.11 "Hg10 mi
11:53 PM
Oct 29
63 °FClear.5 mph73%30.11 "Hg10 mi
10:53 PM65 °FClear.7 mph68%30.11 "Hg10 mi
9:53 PM67 °FClear.8 mph63%30.11 "Hg10 mi
8:53 PM69 °FClear.10 mph61%30.10 "Hg10 mi
7:53 PM71 °FClear.8 mph66%30.09 "Hg10 mi
6:53 PM71 °FSunny.No wind71%30.08 "Hg10 mi
5:53 PM75 °FScattered clouds.7 mph64%30.07 "Hg10 mi
4:53 PM77 °FPassing clouds.6 mph60%30.08 "Hg10 mi
3:53 PM75 °FPartly sunny.5 mph66%30.08 "Hg10 mi
2:53 PM74 °FOvercast.7 mph69%30.09 "Hg10 mi
1:53 PM73 °FMostly cloudy.10 mph74%30.11 "Hg10 mi
12:53 PM73 °FOvercast.9 mph74%30.14 "Hg10 mi
11:53 AM73 °FOvercast.9 mph76%30.15 "Hg10 mi
10:53 AM73 °FOvercast.7 mph76%30.14 "Hg10 mi
9:53 AM70 °FLow clouds.13 mph87%30.14 "Hg7 mi
8:53 AM70 °FLow clouds.8 mph87%30.11 "Hg7 mi
Weather by CustomWeather, © 2014

See weather overviewHow to use our weather pages